Flag for Russia Weather past 2 weeks in Novorossiysk, Russia

Now
81 °F

Passing clouds.


Feels Like: 82 °F
Forecast: 61 / 94 °F
Wind: 6 mph from South

Location: Anapa / Vitiazevo

Current Time: Sep 2, 2015 at 9:49:04 AM

Latest Report: Sep 2, 2015 at 9:00 AM


Visibility: N/A

Pressure: 30.01 "Hg

Humidity: 58%

Dew point: 64 °F

Location of NovorossiyskLocation

Historic Weather in Novorossiysk — Graph

°F

Novorossiysk temperature yesterday

Maximum temperature yesterday: 86 °F (at 1:00 PM)
Minimum temperature yesterday: 55 °F (at 4:00 AM)
Average temperature yesterday: 73 °F

Past Weeks' High & Low Weather Summary

 TemperatureHumidityPressure
High90 °F (Aug 29, 1:00 PM)100% (Aug 19, 5:30 AM)30.12 "Hg (Aug 19, 5:30 AM)
Low55 °F (Aug 27, 3:00 AM)20% (Aug 26, 2:30 PM)29.74 "Hg (Aug 24, 1:00 AM)
Average72 °F58%29.98 "Hg
* Reported Aug 18 8:00 AM — Sep 2 8:30 AM, Novorossiysk, Weather by CustomWeather, © 2015

Note: Actual official high and low records may vary slightly from our data, if they occured in-between our weather recording intervals... More about our weather records

Advertising

Novorossiysk weather history for previous 24 hours

 ConditionsComfort  
Time TempWeatherWind HumidityBarometerVisibility
8:30 AM
Wed, Sep 2
77 °FPassing clouds.6 mph69%30.01 "HgN/A
8:00 AM75 °FSunny.6 mph69%30.01 "Hg10 mi
7:00 AM66 °FSunny.6 mph88%30.01 "Hg10 mi
6:30 AM64 °FClear.6 mph88%29.98 "Hg10 mi
6:00 AM63 °FClear.6 mph88%29.98 "Hg10 mi
5:30 AM63 °FClear.1 mph88%29.98 "Hg10 mi
5:00 AM63 °FPassing clouds.6 mph88%29.98 "HgN/A
4:00 AM63 °FClear.6 mph88%30.01 "Hg10 mi
3:00 AM64 °FPassing clouds.8 mph83%30.01 "HgN/A
2:00 AM63 °FClear.6 mph88%30.01 "Hg10 mi
1:00 AM64 °FClear.6 mph83%30.04 "Hg10 mi
12:00 AM66 °FClear.8 mph83%30.04 "Hg10 mi
11:00 PM
Tue, Sep 1
64 °FClear.6 mph88%30.04 "Hg10 mi
10:30 PM64 °FClear.6 mph88%30.04 "Hg10 mi
10:00 PM66 °FClear.8 mph83%30.04 "Hg10 mi
9:30 PM66 °FPassing clouds.6 mph88%30.04 "HgN/A
9:00 PM66 °FPassing clouds.6 mph83%30.04 "HgN/A
8:30 PM68 °FClear.6 mph83%30.04 "Hg10 mi
8:00 PM70 °FSunny.6 mph78%30.04 "Hg10 mi
7:30 PM73 °FSunny.6 mph74%30.04 "Hg10 mi
7:00 PM75 °FPassing clouds.6 mph69%30.04 "HgN/A
6:30 PM77 °FSunny.8 mph65%30.04 "Hg10 mi
6:00 PM79 °FSunny.10 mph61%30.04 "Hg10 mi
5:30 PM81 °FPassing clouds.10 mph51%30.04 "HgN/A
5:00 PM81 °FSunny.10 mph45%30.04 "Hg10 mi
4:30 PM82 °FPassing clouds.10 mph45%30.04 "HgN/A
4:00 PM82 °FSunny.10 mph42%30.07 "Hg10 mi
3:30 PM82 °FPassing clouds.10 mph42%30.07 "HgN/A
3:00 PM84 °FSunny.10 mph33%30.07 "Hg10 mi
2:30 PM82 °FSunny.10 mph40%30.07 "Hg10 mi
2:00 PM84 °FPassing clouds.8 mph35%30.07 "HgN/A
1:30 PM86 °FPassing clouds.8 mph33%30.07 "HgN/A
1:00 PM86 °FPassing clouds.8 mph35%30.07 "HgN/A
12:30 PM84 °FPassing clouds.6 mph37%30.07 "HgN/A
12:00 PM82 °FPassing clouds.6 mph42%30.07 "HgN/A
11:30 AM82 °FPassing clouds.6 mph45%30.07 "HgN/A
11:00 AM82 °FSunny.8 mph42%30.09 "Hg10 mi
10:30 AM82 °FPassing clouds.6 mph42%30.09 "HgN/A
10:00 AM82 °FPassing clouds.6 mph40%30.09 "HgN/A
9:30 AM81 °FPassing clouds.6 mph39%30.09 "HgN/A
9:00 AM79 °FSunny.1 mph45%30.07 "Hg10 mi
Weather by CustomWeather, © 2015

See weather overviewHow to use our weather pages